Wind_Speed
17 15 14 13 11 9 7 6 5 4 4 4 5 5 6 6 7 7 8 8 8 8 8 8 8 7 6 5 4 3 3 3 2 1 2 4 6 8 9 9 8 9 10 11 12 12 12 12 14 14 15 15 15 15 16 17 17 17 17 17 17 18 19 20 19 18 18 19 19 20 21 21 22 22 22 21 21 21 22 24 25 26 26 26 26
19 18 17 15 14 12 11 10 8 7 6 6 6 6 6 6 6 7 7 8 8 8 8 8 7 7 7 6 6 5 5 3 2 2 4 6 7 8 8 8 8 8 10 12 12 12 11 10 11 11 11 11 11 12 13 13 14 14 14 14 14 14 15 17 17 16 15 15 15 16 16 17 17 18 19 20 19 19 18 19 20 21 21 22 22
22 21 19 17 16 15 14 13 12 11 10 9 8 8 7 7 7 6 6 7 7 8 7 7 7 6 6 6 6 6 5 5 5 5 6 6 7 7 7 7 7 8 10 11 11 11 10 9 8 8 8 8 8 8 8 9 11 13 12 11 11 11 11 13 14 13 12 12 13 14 15 14 15 15 16 17 17 17 16 15 16 16 16 17 18
25 23 21 20 19 18 17 16 15 14 13 12 10 10 9 8 8 7 7 7 7 7 7 7 6 6 6 5 5 6 6 6 6 6 6 6 4 4 3 3 5 7 9 8 8 8 9 9 8 7 5 5 5 4 4 7 10 11 11 11 10 10 11 11 11 11 12 12 11 13 14 13 13 13 13 14 15 14 14 13 12 13 13 14 15
28 26 24 23 22 21 20 19 18 17 15 14 13 12 11 10 9 9 8 9 9 8 8 8 7 7 6 6 5 6 7 7 7 7 5 3 2 2 2 1 2 3 4 4 5 6 8 8 7 6 4 3 3 5 8 11 12 11 11 12 12 12 11 10 10 11 12 12 11 12 13 13 12 12 12 13 13 12 12 12 11 11 12 13 14
32 30 28 26 25 24 23 22 20 18 17 16 16 15 14 12 11 11 11 11 11 10 9 9 9 9 8 7 7 7 8 9 8 7 4 1 2 3 3 2 2 1 2 2 1 1 3 4 5 6 6 5 6 9 11 12 12 12 12 13 14 12 10 9 10 11 11 11 10 9 9 10 11 10 10 12 13 13 12 11 11 11 12 12 11
34 32 30 30 29 28 26 24 22 21 20 20 19 18 17 15 14 15 15 14 14 13 12 12 11 11 9 8 8 9 10 12 10 8 5 5 7 7 7 7 7 4 3 4 5 5 7 8 9 10 10 10 11 13 13 13 14 14 14 14 14 12 11 11 12 13 14 13 11 9 8 8 10 11 11 11 12 13 12 12 11 11 10 9 8
37 34 33 32 30 28 27 26 25 24 24 23 22 20 19 18 18 19 19 18 18 17 17 15 13 12 11 10 10 11 12 13 11 10 9 10 11 12 11 11 11 8 6 6 6 6 6 7 9 11 12 13 13 13 13 14 15 15 15 15 15 14 14 15 15 14 15 17 17 16 14 12 12 14 15 14 13 12 12 11 11 10 9 7 6
39 36 34 33 30 28 28 28 28 28 27 25 24 23 21 20 20 21 22 22 21 21 20 19 16 14 13 13 14 14 14 14 13 12 12 12 14 14 14 15 15 12 9 9 8 8 8 9 10 12 13 14 15 14 14 15 16 16 16 15 15 16 17 18 16 15 17 19 19 17 16 15 14 15 17 16 15 13 12 11 10 10 9 8 6
40 37 35 34 31 30 30 31 31 30 29 27 26 25 24 23 22 22 23 24 24 24 23 22 21 19 17 17 17 17 17 17 17 16 16 16 16 16 15 17 18 15 12 11 12 11 11 12 13 15 17 18 18 19 18 18 18 19 18 17 18 19 20 20 19 19 20 20 20 18 17 17 17 16 16 17 16 15 13 12 10 10 10 9 8
41 39 37 35 33 33 33 33 32 31 30 29 28 28 28 27 26 26 26 26 26 26 26 25 25 23 22 21 20 20 19 19 19 19 19 18 18 17 16 17 18 17 14 13 14 14 14 15 16 18 20 22 23 23 22 22 22 22 22 22 22 22 23 22 21 20 21 21 20 19 18 18 18 17 17 17 17 17 16 15 13 13 12 11 11
43 39 37 36 35 36 37 36 33 31 30 30 31 32 31 29 28 29 30 30 30 29 29 28 28 27 26 25 25 24 23 22 22 21 21 20 19 19 19 18 19 19 18 17 16 15 15 15 17 19 21 24 25 25 24 23 23 23 25 25 24 23 24 25 23 21 22 22 22 21 20 18 18 18 19 20 19 18 18 19 19 18 15 13 13
45 41 39 39 38 38 38 38 37 35 32 32 32 31 30 29 29 31 33 34 35 34 33 31 31 31 30 30 29 28 27 26 25 24 23 22 22 22 21 21 21 21 21 20 19 18 19 21 22 24 24 24 24 24 26 26 25 25 26 26 24 23 25 27 26 24 24 24 24 24 24 21 19 18 20 21 21 20 20 21 23 23 20 18 16
46 44 43 42 41 39 38 38 40 40 38 36 33 32 32 31 32 35 37 36 35 36 36 35 34 33 34 34 34 33 31 29 28 27 26 25 25 24 24 24 24 23 23 22 22 25 28 30 30 28 25 24 25 26 27 27 27 26 27 27 26 26 27 28 27 26 26 27 27 28 27 26 24 23 22 21 21 21 21 23 25 26 25 23 21
45 46 47 47 45 43 41 39 39 41 42 41 39 38 38 37 38 41 40 37 36 36 36 36 35 36 37 37 37 37 36 34 33 32 30 29 28 28 28 28 28 27 27 27 29 33 34 34 33 31 29 28 30 31 30 28 27 27 29 29 29 29 31 31 30 29 29 29 30 30 30 30 30 29 28 26 23 22 22 23 25 26 28 29 28
47 46 48 50 49 48 45 43 41 41 42 41 41 40 38 39 43 45 42 38 37 37 37 37 37 39 40 40 41 41 40 38 38 37 35 34 33 33 32 32 31 31 31 31 34 36 36 35 35 35 34 33 35 37 35 32 31 31 32 32 32 33 34 34 33 33 32 31 32 32 32 32 33 33 34 32 30 27 26 25 25 26 29 32 33
47 46 48 50 51 50 49 48 44 41 39 40 41 40 39 40 44 43 40 40 40 40 39 38 40 43 44 44 46 47 46 43 41 40 39 38 38 38 38 38 37 37 37 37 37 38 38 38 39 39 39 39 40 40 40 39 37 37 38 38 37 37 38 37 36 36 36 35 35 35 34 34 34 35 35 35 35 34 32 30 28 29 30 31 33
47 46 49 50 51 52 53 51 48 43 41 44 46 46 44 44 43 39 39 42 44 43 42 41 44 48 48 46 46 48 50 49 45 43 42 41 41 40 41 42 41 41 42 42 42 42 41 42 44 44 43 44 44 44 44 42 41 42 43 43 42 41 41 41 41 40 40 40 39 39 39 38 37 37 37 37 37 37 38 37 35 34 33 33 34
53 51 52 52 52 55 57 56 53 48 47 51 54 54 56 56 53 50 49 49 48 46 45 46 49 51 50 48 46 46 49 51 50 47 46 45 43 41 41 41 40 41 44 46 46 44 42 42 43 43 43 45 47 48 46 45 45 45 44 43 43 43 43 44 44 44 44 45 45 45 45 44 42 41 41 40 39 40 40 41 40 40 38 37 36
56 56 57 57 56 57 59 61 59 53 50 52 54 56 59 61 61 60 59 57 54 52 50 50 52 53 51 50 48 46 45 48 50 50 49 47 45 42 41 41 42 43 44 45 45 44 43 43 44 44 44 45 46 46 45 46 47 47 45 43 43 43 44 44 46 47 48 48 49 50 50 50 49 48 46 44 43 42 42 43 43 43 43 42 40
57 55 55 57 59 59 60 62 63 60 55 54 56 57 60 61 62 62 62 61 60 59 57 56 55 54 52 51 50 47 42 42 44 45 46 46 44 41 41 43 45 45 42 40 43 44 43 44 47 49 48 45 44 43 44 47 48 47 46 45 45 45 45 46 47 48 50 51 52 53 54 54 55 54 52 50 48 46 45 44 44 44 44 44 44
62 58 55 56 58 60 60 61 64 66 64 63 64 64 64 64 64 64 64 64 63 63 63 62 58 54 52 52 52 51 47 45 44 42 41 42 43 42 41 41 43 44 41 40 44 48 48 48 50 51 49 46 46 47 50 51 52 50 48 47 48 47 47 45 45 47 49 51 53 55 56 57 58 58 57 56 54 53 51 50 49 48 48 47 47
64 61 61 61 61 60 61 63 66 68 69 69 70 69 67 66 67 67 67 66 66 66 66 64 60 55 53 52 52 53 52 53 52 48 45 44 46 48 45 40 39 41 41 43 47 51 52 52 53 52 51 50 50 52 53 54 55 53 52 51 50 49 47 46 46 46 48 50 52 54 56 57 58 59 59 58 58 57 57 56 55 55 54 54 53
63 60 62 66 67 66 65 66 68 69 69 70 71 71 71 71 71 70 69 68 67 66 67 65 62 58 55 54 55 55 54 56 57 55 53 52 52 54 53 48 44 44 46 49 53 54 55 56 56 56 56 55 54 55 56 57 57 57 55 55 55 55 55 55 54 52 52 52 54 55 57 58 58 59 59 59 59 59 60 60 60 60 60 60 60
65 61 61 64 68 71 71 69 69 70 71 72 72 72 73 74 74 72 70 68 67 67 67 67 65 62 58 59 60 60 59 59 59 59 59 59 56 55 55 54 53 53 54 57 60 61 62 62 61 61 61 60 60 60 60 61 62 62 62 61 61 61 62 63 62 60 59 59 60 60 60 60 61 61 60 60 60 60 60 61 61 61 62 62 63
66 64 64 64 66 70 72 72 71 71 71 72 72 72 72 73 75 74 72 71 70 69 69 69 68 66 64 63 65 66 65 64 63 63 63 62 60 58 58 57 57 58 60 60 61 62 64 66 67 68 69 68 68 67 67 68 69 70 70 69 69 68 68 67 67 67 66 66 66 66 65 64 64 64 63 63 64 63 63 64 64 64 65 65 65
70 67 67 68 68 69 71 72 72 73 72 71 71 71 72 73 74 75 74 74 73 71 70 70 70 70 69 68 69 70 69 67 66 67 67 66 65 64 65 66 66 65 65 64 65 66 68 70 72 73 74 73 74 74 75 75 75 75 75 75 75 75 74 73 73 73 73 73 73 73 72 71 70 69 69 69 70 70 70 71 71 72 72 72 71
75 72 70 71 72 73 72 71 71 72 73 73 72 72 72 73 75 76 76 75 75 74 72 72 72 72 73 73 73 73 73 71 69 69 70 71 71 70 71 73 75 75 75 75 76 77 77 77 76 76 76 77 77 78 79 80 80 80 79 79 80 80 79 78 78 78 78 79 79 79 79 78 78 77 77 76 76 77 77 78 79 80 81 80 79
80 77 74 73 74 76 76 74 72 70 71 73 74 73 71 71 72 74 75 76 76 77 76 75 74 73 73 73 74 75 75 74 72 71 71 72 73 74 75 76 78 79 81 82 83 83 82 81 81 80 79 78 77 76 76 78 81 82 83 83 84 84 84 83 83 82 82 82 82 83 83 82 82 82 82 82 82 83 83 83 84 85 86 87 86
82 82 81 78 77 77 78 78 76 73 71 72 73 74 72 71 71 71 73 74 75 76 77 78 78 77 75 75 75 75 75 75 75 74 73 72 73 74 75 76 78 80 81 82 83 83 83 82 82 82 82 82 82 80 79 79 81 84 86 87 87 87 87 87 87 86 85 84 84 84 84 84 84 84 84 84 84 85 85 86 87 88 89 90 91
84 84 85 85 84 83 83 82 81 80 78 76 76 76 75 74 74 74 75 75 76 76 76 77 78 79 79 78 78 78 77 76 76 76 76 76 76 76 76 78 79 81 82 83 84 85 86 86 87 88 89 90 90 89 88 88 88 89 91 91 91 91 90 90 89 88 87 87 87 87 88 88 88 87 87 87 86 86 86 87 88 89 90 92 93
87 86 86 87 88 88 89 88 87 86 85 83 82 82 81 80 79 79 78 79 79 79 79 79 79 79 79 80 80 80 80 80 79 79 79 80 81 81 82 83 84 85 86 88 89 91 93 94 95 96 96 96 96 95 95 95 96 96 96 96 95 95 93 92 91 90 90 90 90 91 91 91 92 91 91 91 91 91 91 91 92 92 93 94 95
90 89 89 89 89 89 90 90 90 89 88 86 85 85 84 84 84 83 83 82 82 82 83 83 83 82 81 81 81 82 83 84 85 84 83 84 84 85 87 88 89 90 91 93 95 96 98 99 100 100 100 99 99 99 100 100 100 101 101 100 98 96 95 94 93 94 94 94 95 95 95 95 95 96 96 96 97 97 97 97 98 98 99 99 99
91 92 91 91 91 91 91 90 90 89 88 87 86 85 85 84 84 85 86 86 86 85 85 86 87 87 86 86 85 85 86 87 88 88 89 89 89 89 89 90 91 92 93 94 95 97 98 99 100 101 101 101 102 102 103 103 103 103 102 101 99 98 98 98 99 100 100 100 100 100 100 101 101 101 102 102 103 103 103 103 103 103 103 103 103
88 91 92 93 93 93 94 93 92 91 90 88 87 87 86 86 85 86 87 88 89 89 89 89 89 89 89 89 89 89 89 89 90 91 92 92 93 93 92 93 93 94 95 95 95 96 97 98 99 100 101 102 103 103 104 105 105 104 104 103 103 104 105 106 107 107 107 106 106 106 106 106 107 107 108 108 108 108 109 109 108 107 106 105 105
86 89 91 93 93 93 94 95 95 95 94 92 91 89 88 88 88 88 88 89 90 91 92 92 92 92 91 91 91 91 91 91 91 91 92 93 94 94 95 96 97 97 98 99 99 100 100 101 101 101 102 103 104 105 106 107 108 108 109 109 110 111 111 112 112 112 111 111 111 111 111 111 111 112 112 112 112 112 112 112 112 111 110 110 110
85 86 89 92 94 94 94 94 95 96 97 97 96 95 93 92 91 90 90 90 91 91 92 92 93 93 93 93 93 93 93 93 93 93 93 94 95 96 97 97 98 99 100 102 103 104 104 105 105 106 106 107 108 109 109 110 111 112 112 113 113 114 114 113 113 113 113 113 113 114 114 114 114 114 114 114 114 114 114 114 114 113 113 113 113
84 84 86 88 91 93 94 96 97 98 99 100 100 100 99 98 97 95 94 93 92 92 92 92 93 93 94 95 96 96 96 97 97 97 97 98 98 99 99 99 100 101 103 104 105 106 106 107 107 108 109 110 110 111 112 112 113 114 115 115 116 116 116 117 117 117 117 117 117 117 117 117 117 117 117 117 117 118 118 118 117 117 117 117 117
81 83 84 85 86 88 90 92 94 96 97 99 100 101 102 102 102 101 99 96 94 93 92 92 93 94 95 96 97 98 99 100 100 100 101 101 102 102 102 102 103 104 105 106 106 108 108 109 109 110 111 112 112 113 114 114 115 116 117 117 118 118 119 119 120 121 121 121 121 121 121 122 122 122 122 122 122 122 121 121 121 121 120 120 120
78 79 81 82 84 85 86 88 89 91 92 94 95 97 98 100 101 102 101 100 98 96 95 94 93 94 94 95 96 97 99 100 101 102 103 104 104 105 105 106 107 107 108 108 109 110 111 112 113 114 114 115 116 117 118 119 120 120 121 121 121 122 122 123 124 124 124 125 125 125 125 125 125 125 125 125 125 125 125 125 124 124 124 124 124
75 76 77 79 80 82 83 85 86 88 89 90 91 93 94 96 97 99 100 101 101 101 100 98 97 97 97 97 97 97 98 99 100 102 103 105 107 108 109 110 111 112 113 114 114 115 115 116 116 117 118 119 120 121 122 123 124 125 126 126 127 127 128 129 129 130 131 131 131 131 130 130 130 130 130 130 130 130 130 130 130 130 130 131 131
75 75 75 75 76 77 78 80 81 82 84 85 87 89 90 92 93 95 97 99 100 101 102 102 102 102 102 102 102 102 102 102 103 103 104 106 107 109 110 112 114 115 116 117 118 119 120 121 122 122 123 123 124 125 126 128 128 129 130 130 131 132 133 134 134 135 136 136 137 137 137 137 137 138 138 138 138 139 139 140 140 141 141 142 142
75 76 76 76 77 77 77 78 78 78 79 80 81 83 84 86 88 90 92 94 96 98 100 101 103 104 105 105 106 106 107 107 108 108 109 109 110 111 112 114 115 116 117 118 120 121 122 123 124 125 125 126 127 128 130 131 132 133 134 134 135 136 137 138 139 140 141 141 142 142 142 143 144 145 145 146 147 147 148 148 148 149 149 149 148
71 73 74 75 76 77 78 78 79 79 79 79 79 80 81 82 83 85 87 88 90 92 95 97 99 101 103 104 106 108 109 110 111 111 112 113 113 115 116 117 118 119 120 121 122 123 124 125 126 127 127 128 129 130 131 133 134 134 135 136 137 138 139 140 141 142 143 144 144 145 145 146 147 147 148 148 149 150 150 150 150 149 149 148 148
61 64 66 68 70 72 74 76 77 78 78 79 79 80 81 81 82 83 84 85 86 87 89 90 92 94 96 98 100 102 104 106 108 109 111 112 113 114 116 117 118 120 121 123 124 126 127 128 129 130 131 132 133 134 135 136 137 138 138 139 140 140 141 142 143 144 145 146 146 147 147 147 148 148 148 148 148 149 149 148 148 147 147 146 146
53 55 57 60 62 64 66 68 70 71 73 74 75 76 77 78 79 79 80 81 82 83 84 85 86 87 88 90 92 94 96 98 100 101 103 105 106 108 110 112 114 116 118 120 122 124 125 127 128 130 131 132 133 134 135 136 137 138 139 139 140 141 141 142 143 143 144 144 144 145 145 145 144 144 143 143 142 142 141 140 139 138 137 137 136
48 50 52 54 56 58 60 61 63 65 66 68 69 70 72 73 74 75 76 77 79 80 81 82 82 83 84 85 86 88 89 91 92 94 96 97 99 100 102 104 106 108 110 112 114 117 119 121 123 125 126 128 129 130 131 132 133 133 134 134 135 135 135 136 136 136 136 136 136 136 136 135 135 134 133 131 130 129 128 127 126 125 124 123 122
45 46 47 49 50 52 54 56 58 59 61 63 64 65 66 67 69 70 71 73 74 75 76 77 77 78 79 80 81 82 83 84 86 87 89 91 92 94 96 97 99 101 103 105 107 109 112 114 116 118 119 121 122 122 123 124 125 125 126 126 126 126 126 126 126 126 126 125 125 125 125 125 124 123 122 121 119 118 117 117 116 115 114 113 113
45 45 46 47 47 48 50 52 53 55 56 57 58 59 60 61 62 63 65 66 67 68 69 70 71 72 74 75 76 77 79 80 82 83 85 87 89 90 92 94 96 98 99 101 103 105 106 108 110 111 112 113 114 115 116 117 117 118 118 118 118 118 118 118 118 118 118 118 118 117 117 116 115 114 113 112 111 110 109 108 108 107 107 106 106
48 48 49 49 49 49 50 51 53 53 54 55 56 57 57 59 60 61 62 63 64 66 67 69 70 72 74 75 77 78 80 81 83 85 86 88 89 91 93 94 96 98 99 100 102 103 104 105 107 108 109 109 110 111 111 112 113 113 113 113 113 113 113 113 113 112 112 111 110 110 109 108 107 106 105 104 103 102 101 100 100 100 99 99 99
47 48 48 48 48 49 50 52 52 53 54 55 56 57 58 60 61 62 64 65 67 68 69 70 72 74 76 77 79 81 83 84 86 87 89 90 92 93 94 96 97 98 99 101 102 102 103 104 104 105 106 106 107 107 108 108 108 108 108 108 107 107 106 106 105 105 104 103 102 101 100 100 99 98 97 96 95 94 93 92 92 91 91 90 90
Wind_Direction
230 225 223 221 217 213 213 214 208 198 190 179 172 170 172 176 181 184 186 187 188 189 192 194 194 192 192 192 188 185 191 211 237 330 14 33 51 61 65 65 63 65 68 74 80 82 86 95 101 102 102 101 95 88 83 76 70 64 59 56 55 55 52 48 46 46 48 51 49 48 47 45 45 46 46 47 50 57 63 66 65 63 60 56 54
238 233 228 226 223 218 214 214 214 210 207 201 196 189 183 182 185 188 192 194 196 200 202 205 205 203 201 195 189 182 181 183 163 102 82 76 71 69 70 71 70 71 75 76 77 77 80 94 110 116 112 104 96 89 83 75 66 58 52 47 43 43 44 42 37 33 35 41 43 40 36 34 35 37 38 38 40 46 53 61 65 64 61 59 56
238 238 237 235 233 228 221 217 215 214 212 210 209 207 201 196 195 196 199 199 201 205 207 205 205 202 198 192 181 172 170 162 144 127 114 103 89 73 68 70 71 72 76 77 75 74 76 85 102 113 114 110 105 94 80 67 57 45 34 30 28 24 25 32 34 31 29 33 36 34 28 22 22 26 29 27 29 36 41 47 55 58 57 55 55
236 236 235 234 235 234 231 227 223 219 216 216 216 217 219 217 213 211 211 213 217 221 219 217 216 210 203 195 182 173 176 170 158 150 141 131 115 90 74 70 68 69 74 77 74 73 74 77 84 92 103 110 101 84 48 27 27 20 5 356 359 360 359 12 31 36 31 29 30 27 24 16 10 11 14 15 17 23 28 31 35 41 43 40 40
237 234 233 233 233 234 234 234 232 228 224 223 223 225 228 229 230 231 229 225 227 232 235 235 236 233 226 216 204 198 197 191 182 174 166 159 153 155 162 156 85 63 57 63 71 70 68 64 58 52 54 60 42 19 1 353 352 348 334 323 330 341 347 1 22 29 29 35 36 26 17 10 4 360 356 356 360 5 12 16 15 16 20 22 25
237 236 235 236 236 235 233 234 235 235 234 231 231 233 236 239 242 246 247 244 240 241 245 247 246 247 245 238 230 229 228 222 210 195 186 224 286 260 242 261 285 307 292 293 313 357 354 348 339 337 336 330 331 332 335 335 331 327 321 313 317 330 340 349 0 4 10 24 34 30 12 358 354 353 347 345 347 347 349 356 360 360 1 6 16
235 236 237 239 239 238 236 233 233 234 235 234 233 234 236 240 245 248 251 253 252 252 254 255 253 253 252 245 239 239 241 242 239 232 238 272 287 278 265 265 271 272 272 279 280 280 292 299 298 298 299 297 301 305 310 316 317 316 314 312 313 319 327 333 338 341 345 351 356 356 349 343 342 344 346 346 345 341 335 332 337 345 352 356 7
231 233 236 239 241 242 241 238 234 233 235 237 238 237 236 236 240 244 248 251 253 255 258 259 260 261 262 260 253 250 250 251 254 254 253 260 268 269 261 257 260 262 266 278 290 292 297 301 298 296 293 289 290 292 298 308 311 309 309 312 311 310 317 326 332 337 342 343 343 339 333 329 326 330 340 346 345 343 334 323 322 331 342 346 349
227 230 234 237 239 242 243 241 238 236 236 239 242 243 242 240 241 242 245 249 252 255 259 262 263 263 263 262 259 256 256 258 260 259 255 254 259 262 261 258 260 262 260 265 276 287 298 308 309 307 303 299 298 298 298 298 298 299 301 304 303 302 308 314 316 322 330 333 334 333 331 329 322 318 327 338 339 336 333 327 322 323 326 328 330
226 228 232 235 236 237 239 241 242 242 241 241 244 247 247 247 247 248 248 249 251 254 257 260 262 263 263 262 262 260 258 259 259 258 257 258 261 264 262 258 261 264 262 260 263 272 284 294 299 301 300 299 299 299 299 297 296 296 297 299 301 303 307 310 309 310 313 315 318 321 324 328 326 316 313 322 328 326 324 323 320 316 312 309 312
226 227 230 233 235 236 237 239 242 245 244 243 246 248 248 249 250 251 253 253 253 253 254 256 258 260 261 260 261 261 260 259 258 256 256 257 259 262 262 259 260 264 266 264 265 269 274 282 291 295 296 295 294 293 294 296 297 298 299 301 303 303 306 310 310 306 299 297 303 308 311 317 322 315 304 304 311 315 315 315 311 306 304 299 297
229 229 230 232 235 237 239 240 242 243 242 243 247 247 247 249 252 254 256 257 256 255 255 256 256 257 258 259 259 259 259 259 258 256 255 255 256 258 260 259 259 263 268 270 270 272 277 284 287 283 281 283 283 285 287 289 291 293 296 298 298 297 299 303 304 299 290 286 290 295 297 302 310 308 297 293 296 301 305 306 304 300 296 290 287
232 232 232 233 233 234 238 241 242 241 240 240 243 244 246 250 254 254 254 255 255 255 256 257 257 256 256 257 258 258 257 257 257 257 256 256 257 258 260 260 260 261 264 266 270 274 273 271 265 259 260 265 271 277 282 284 284 285 288 289 288 288 290 293 295 294 288 283 283 285 287 292 298 300 294 289 291 296 299 301 300 297 292 283 279
233 235 234 234 233 232 234 238 242 243 242 241 242 243 247 254 258 257 256 256 256 256 256 256 257 257 255 256 258 259 259 258 257 257 257 257 259 260 261 261 261 261 261 262 264 265 264 265 265 264 263 264 267 275 281 281 280 282 282 281 279 281 284 287 289 288 286 283 283 282 283 286 289 293 291 284 282 287 292 294 293 291 287 281 277
235 238 238 237 234 231 231 234 241 244 244 244 247 248 249 255 258 258 258 258 257 256 255 254 255 257 257 258 259 261 262 262 261 260 260 260 261 261 261 261 260 261 261 261 262 263 265 268 270 270 269 267 268 273 276 275 276 279 279 278 278 281 284 286 286 285 283 283 283 283 283 284 285 289 289 284 277 276 279 284 286 285 281 277 275
234 236 239 238 235 233 231 232 238 242 244 244 248 250 249 249 251 254 256 257 256 255 257 257 259 260 261 262 264 264 263 263 262 262 262 262 262 263 263 262 262 262 262 262 263 265 268 270 269 266 266 265 266 269 271 272 273 275 276 276 277 280 283 284 285 284 282 281 281 282 283 284 284 285 286 284 281 278 276 278 283 284 281 277 274
230 231 235 237 236 234 232 231 233 238 241 239 240 244 246 245 247 253 256 254 253 255 260 263 265 266 266 267 268 267 264 263 262 261 262 263 263 264 264 265 265 264 263 263 263 264 264 266 266 266 266 265 265 267 271 273 274 276 277 277 277 278 280 282 283 284 283 282 282 282 282 283 283 283 282 281 280 280 279 279 281 283 283 279 276
225 226 230 233 235 233 230 228 229 232 235 233 232 235 238 239 243 247 249 249 251 255 258 258 260 263 264 267 270 268 264 262 262 262 263 264 265 268 271 271 270 268 266 264 265 266 267 267 266 266 266 267 267 268 271 273 275 275 275 276 277 277 278 280 282 283 284 284 284 283 283 283 283 282 281 279 277 278 279 280 280 281 281 280 276
222 224 227 229 231 232 229 227 229 233 234 231 232 234 235 237 240 242 244 247 249 251 253 253 255 260 263 266 269 269 265 261 260 262 264 264 265 269 273 274 272 271 271 271 269 269 269 268 268 267 266 265 265 266 269 271 271 271 272 272 274 276 277 279 280 281 283 283 284 284 284 283 283 282 282 280 278 277 276 277 277 278 279 279 276
220 223 227 228 229 231 231 229 228 230 230 231 234 236 235 236 239 241 243 245 246 246 249 251 254 259 263 264 265 267 267 264 261 262 263 264 265 268 269 267 266 267 269 271 271 268 265 264 265 267 265 263 262 264 267 268 267 269 271 273 273 274 275 277 278 279 280 280 281 283 283 283 282 281 281 281 281 279 277 276 275 275 276 276 276
217 219 222 225 228 231 232 231 228 227 231 235 238 238 236 237 238 239 241 243 244 246 248 249 253 257 259 260 260 261 264 265 265 264 264 263 263 264 262 259 259 262 264 265 265 263 262 261 261 263 264 262 262 265 266 267 267 269 271 272 273 274 275 276 277 278 278 279 279 280 281 282 282 282 281 281 281 280 279 278 277 276 276 275 275
219 220 218 218 223 228 231 232 230 229 233 238 241 240 240 240 241 241 242 243 245 247 249 250 254 256 256 256 258 260 259 259 260 260 262 261 259 259 258 256 254 256 257 257 256 257 258 257 257 260 262 264 265 267 268 268 269 270 270 271 271 272 273 275 277 278 279 279 280 280 280 280 281 281 282 282 281 281 280 280 280 279 279 279 278
221 225 224 221 222 226 230 232 232 232 235 240 243 244 245 246 246 246 246 245 246 248 250 251 254 255 254 253 256 260 259 257 255 255 256 258 259 258 257 255 252 250 248 247 250 254 256 257 259 261 264 267 270 271 271 271 271 272 272 272 272 272 272 273 276 277 279 280 281 281 281 281 280 280 280 280 280 281 281 281 281 281 281 281 280
222 227 228 226 225 227 229 232 233 234 235 238 241 243 245 247 247 248 247 246 246 248 251 253 254 255 253 251 252 255 257 257 256 256 257 260 261 259 256 253 250 248 245 246 250 254 255 257 260 262 264 267 270 272 273 273 274 274 274 273 273 273 273 274 275 276 277 278 279 280 281 281 280 279 278 278 278 279 280 280 280 280 280 281 281
221 225 227 228 228 228 229 232 234 235 237 238 241 242 244 245 246 246 246 246 247 249 251 253 254 254 253 251 250 252 256 259 259 259 260 260 260 258 257 255 252 249 249 252 255 256 255 256 259 262 265 267 269 270 272 274 274 275 275 274 274 274 274 275 276 276 276 277 278 278 278 278 278 277 277 277 277 277 277 278 278 279 279 279 279
218 222 225 227 228 228 229 231 232 234 237 239 241 243 244 246 246 246 246 247 248 250 251 253 254 254 253 252 252 253 258 261 261 261 261 260 257 254 254 256 255 253 252 254 254 253 254 258 263 267 269 270 271 272 274 275 275 275 276 276 276 276 276 277 277 277 277 277 277 277 277 276 275 274 274 274 274 275 275 275 275 276 277 277 278
218 220 223 225 227 228 229 230 231 233 236 238 241 243 245 247 248 248 249 249 249 250 251 252 254 255 255 255 255 257 259 260 260 260 260 260 258 254 252 254 257 257 255 254 255 255 257 260 264 268 270 271 273 274 275 275 275 275 276 277 277 277 277 277 277 277 277 277 277 277 277 276 276 275 274 273 273 273 273 273 273 274 275 276 276
220 220 220 223 226 227 228 230 231 233 236 238 240 242 243 246 248 249 250 251 251 251 251 252 253 255 256 257 257 259 260 261 259 259 259 259 258 257 255 254 256 257 257 257 257 259 261 262 264 266 269 271 273 274 274 275 275 275 276 277 277 277 277 277 277 277 277 277 277 277 277 277 276 276 275 275 274 274 274 274 274 275 275 276 277
223 222 221 222 224 226 228 230 231 234 236 238 239 241 242 244 246 248 250 251 252 253 253 253 253 254 255 257 258 259 260 261 260 258 257 258 258 258 257 256 255 256 257 258 259 261 263 264 266 267 269 270 272 273 273 273 274 275 276 277 277 277 277 276 276 276 277 277 277 278 278 278 277 277 277 276 275 275 275 274 274 275 276 276 277
227 227 226 225 226 227 228 230 232 234 236 238 239 240 242 245 247 248 249 251 252 253 254 254 254 254 254 255 256 258 259 259 259 258 256 256 256 257 257 257 257 257 259 260 261 262 263 264 265 266 267 268 270 270 269 268 269 271 273 275 276 276 275 275 275 276 276 276 276 277 277 278 278 278 277 277 276 276 275 275 275 275 275 276 277
230 230 231 231 231 231 233 235 236 237 239 240 241 242 243 246 248 249 250 251 251 252 252 253 254 254 254 255 255 255 256 256 257 257 256 256 256 256 256 257 258 258 260 261 261 262 262 263 263 265 266 268 269 269 269 269 270 271 273 275 275 275 275 275 275 275 276 276 277 277 278 278 278 278 278 277 277 276 276 276 275 275 275 276 277
232 233 234 235 235 236 237 239 241 242 244 245 245 246 247 248 249 250 251 251 252 252 252 252 252 253 254 254 254 254 254 254 255 256 257 258 259 260 260 260 260 260 261 261 262 263 264 264 265 266 268 269 270 271 272 272 273 275 276 276 276 275 275 274 274 275 275 275 275 276 276 277 277 277 277 277 277 276 276 276 276 276 276 276 276
234 235 236 237 238 239 240 241 242 244 246 248 249 250 250 251 251 251 251 252 252 253 253 254 254 254 253 253 253 253 253 253 254 256 257 259 261 262 263 263 263 263 263 263 264 264 265 266 267 268 269 270 271 272 273 274 275 275 276 276 276 275 275 274 274 275 275 274 274 274 273 274 274 274 275 275 275 275 275 276 276 277 277 277 277
235 236 237 239 240 242 243 244 245 246 247 248 250 251 252 252 252 252 252 252 253 253 254 255 255 256 256 255 255 255 255 255 255 256 258 259 261 262 263 264 264 265 265 265 265 265 266 266 267 267 268 269 270 271 272 272 273 274 274 274 274 274 274 274 275 275 275 275 274 273 273 273 273 273 273 274 274 274 274 275 276 276 277 277 277
237 237 238 239 241 242 244 245 247 248 249 250 251 251 252 253 253 254 254 254 254 254 255 256 257 257 258 258 259 259 259 259 259 259 260 261 262 263 265 265 266 266 267 267 267 267 267 268 268 269 269 270 271 271 272 272 273 273 273 273 273 273 274 274 275 275 275 275 274 274 273 273 273 273 273 273 274 274 275 275 276 276 276 277 277
238 238 238 239 241 242 243 244 246 248 249 251 252 253 253 254 254 254 254 255 255 255 256 257 258 259 260 261 262 262 263 264 264 264 264 265 265 266 266 267 268 268 269 269 269 269 270 270 270 271 271 271 272 272 272 273 273 273 273 273 273 274 274 274 274 274 274 274 274 274 274 274 274 274 274 274 275 275 276 277 277 277 278 278 278
239 239 240 240 241 243 244 245 246 247 248 250 252 253 255 255 256 256 256 256 256 257 257 258 259 260 261 262 263 264 264 265 266 266 266 266 266 267 268 268 269 269 269 270 270 270 271 271 271 271 272 272 272 272 272 272 273 273 273 273 273 273 273 273 273 273 273 273 273 273 273 273 273 273 273 274 274 275 275 276 276 276 277 277 278
240 241 241 242 243 243 245 246 247 249 250 251 252 253 255 256 257 258 259 259 259 259 259 260 260 260 261 262 263 264 265 265 266 266 267 267 267 267 268 268 268 268 268 269 269 270 270 270 271 271 271 271 272 272 272 272 272 272 272 272 272 272 272 272 272 271 271 271 271 271 271 271 272 272 272 272 273 273 274 274 275 275 275 276 276
243 243 244 244 245 245 246 247 248 249 250 251 252 253 255 256 257 259 260 261 261 261 261 261 262 262 262 262 263 263 264 265 265 266 266 267 267 268 268 267 267 267 267 267 268 268 268 269 269 270 270 270 270 271 271 271 271 271 271 271 271 271 271 271 271 271 271 271 271 271 271 271 271 271 271 272 272 273 273 273 274 274 274 274 275
246 246 247 247 248 248 248 249 250 250 251 252 253 254 255 256 257 258 259 260 261 262 262 262 262 262 262 263 263 264 264 264 265 265 265 266 266 266 266 267 267 267 267 267 267 267 267 268 268 268 268 268 269 269 269 269 269 269 269 269 270 270 270 270 270 271 271 271 271 271 271 271 271 271 271 271 272 272 272 272 272 272 273 273 273
249 249 250 250 251 252 252 253 253 254 254 255 255 256 256 257 258 258 259 259 260 261 262 262 263 263 263 263 263 264 264 264 265 265 265 266 266 266 266 266 266 266 267 267 267 267 267 267 267 268 268 268 268 268 268 269 269 269 269 269 270 270 270 270 271 271 271 271 271 271 271 271 271 271 271 271 272 272 272 272 272 272 272 272 272
251 251 252 252 253 253 254 255 255 256 257 257 258 258 258 259 259 260 260 260 261 261 262 262 263 264 264 264 265 265 265 265 265 266 266 267 267 267 268 268 268 268 268 268 268 268 268 268 268 268 268 268 268 269 269 269 269 269 269 270 270 270 270 271 271 271 271 272 272 272 272 272 272 272 272 273 273 273 273 273 273 273 274 274 274
252 252 253 253 254 254 255 256 256 257 257 258 258 259 259 259 260 260 261 261 261 262 262 263 263 264 264 265 266 266 266 266 267 267 267 268 268 269 269 269 270 270 270 270 270 270 270 270 270 270 270 270 270 270 270 271 271 271 271 271 271 272 272 272 272 273 273 273 274 274 274 275 275 275 275 275 275 276 276 276 276 276 276 276 276
251 251 252 253 253 254 255 255 256 256 257 258 258 259 260 260 260 261 261 262 262 263 263 264 264 264 265 266 266 267 267 268 268 268 269 269 270 270 271 271 271 272 272 272 272 272 272 272 272 272 272 272 272 272 273 273 273 273 273 274 274 274 274 274 275 275 276 276 276 276 277 277 277 277 277 277 277 277 277 278 278 278 278 278 278
249 249 250 251 252 252 253 254 255 256 257 258 259 259 260 261 262 262 263 263 264 264 265 265 266 266 266 267 267 268 268 269 269 269 270 270 271 271 271 272 272 272 273 273 273 273 273 274 274 274 274 274 274 274 274 274 275 275 275 275 275 276 276 276 276 277 277 277 278 278 278 278 278 278 278 278 278 278 278 278 278 278 278 278 278
253 252 252 252 253 254 255 256 257 258 259 260 260 261 262 262 263 264 264 265 265 266 266 267 267 268 268 269 269 270 270 270 271 271 271 271 271 271 271 272 272 272 273 273 273 274 274 274 274 274 275 275 275 275 275 276 276 276 276 276 277 277 277 277 277 278 278 278 278 279 279 279 279 279 279 279 279 279 279 279 279 279 279 279 279
257 256 256 256 256 257 257 258 259 260 261 261 262 263 264 264 265 266 267 267 267 268 268 269 269 270 270 271 271 271 272 272 272 272 272 272 272 272 272 272 272 272 273 273 273 273 274 274 274 274 275 275 275 276 276 276 276 277 277 277 277 278 278 278 278 278 278 279 279 279 279 280 280 280 280 280 280 280 280 280 280 280 280 280 280
258 258 257 257 257 258 258 259 259 260 260 261 262 263 264 265 266 266 267 268 268 269 269 270 270 270 270 271 271 271 272 272 273 273 273 273 273 273 273 273 273 273 273 274 274 274 274 275 275 275 275 275 276 276 276 277 277 277 277 278 278 278 278 278 279 279 279 279 280 280 280 281 281 281 281 281 281 282 282 281 281 281 281 281 281
257 257 257 257 257 258 258 259 259 260 260 261 262 262 263 264 265 266 267 268 269 270 270 271 271 271 271 271 271 271 272 272 272 273 273 274 274 274 275 275 275 275 275 275 276 276 276 276 276 277 277 277 277 277 278 278 278 278 278 278 279 279 279 280 280 280 280 280 280 281 281 281 281 282 282 282 282 282 282 282 282 282 282 281 281
256 257 258 258 259 260 261 261 262 263 264 264 265 265 266 266 267 268 269 270 270 271 272 273 273 274 274 274 274 273 273 273 274 274 274 274 275 275 276 276 277 277 277 277 277 277 277 277 277 278 278 278 278 278 278 278 279 279 279 279 280 280 280 280 281 281 281 281 281 282 282 282 282 282 282 282 282 282 282 282 282 282 281 281 281
258 259 260 262 262 263 264 265 266 267 268 269 269 270 270 271 271 271 272 272 273 273 273 274 275 275 275 276 276 276 276 276 276 276 276 276 277 277 277 277 278 278 278 278 278 277 277 277 277 277 278 278 278 278 278 279 279 279 280 280 280 280 281 281 281 281 282 282 282 283 283 283 283 283 283 283 283 283 283 282 282 282 282 282 281
Height
10970 10971 10971 10972 10973 10974 10975 10975 10976 10977 10977 10977 10977 10977 10978 10978 10978 10978 10979 10979 10979 10979 10979 10979 10979 10979 10979 10979 10980 10979 10979 10979 10979 10979 10979 10979 10979 10979 10978 10978 10978 10977 10977 10977 10978 10979 10979 10979 10978 10977 10976 10975 10974 10974 10973 10972 10972 10971 10970 10970 10969 10968 10968 10967 10966 10966 10965 10965 10965 10965 10964 10964 10964 10963 10963 10963 10962 10960 10959 10957 10956 10956 10956 10955 10954
10969 10970 10971 10971 10972 10972 10973 10974 10975 10976 10977 10977 10978 10978 10979 10979 10979 10979 10979 10979 10980 10980 10980 10980 10980 10980 10980 10979 10979 10979 10979 10979 10980 10980 10980 10980 10980 10979 10979 10979 10979 10979 10979 10978 10979 10979 10979 10980 10980 10979 10978 10977 10976 10975 10974 10974 10973 10973 10972 10971 10971 10970 10969 10968 10968 10967 10967 10966 10966 10966 10966 10966 10966 10965 10965 10964 10964 10962 10961 10959 10958 10958 10958 10957 10956
10968 10969 10970 10971 10971 10971 10972 10972 10973 10975 10976 10977 10978 10979 10979 10979 10979 10979 10979 10980 10980 10980 10980 10980 10980 10980 10980 10980 10979 10979 10979 10979 10979 10980 10980 10980 10980 10980 10980 10980 10980 10980 10980 10980 10980 10979 10979 10980 10980 10980 10980 10979 10978 10977 10976 10975 10975 10974 10974 10973 10972 10971 10971 10970 10970 10969 10968 10968 10968 10968 10967 10967 10967 10966 10965 10965 10965 10964 10963 10962 10961 10960 10959 10959 10958
10965 10967 10969 10970 10970 10971 10972 10972 10972 10973 10975 10976 10977 10978 10979 10979 10979 10980 10980 10980 10980 10980 10980 10980 10980 10980 10980 10980 10980 10979 10979 10979 10979 10979 10980 10980 10980 10980 10981 10981 10981 10981 10981 10981 10981 10980 10980 10980 10980 10981 10981 10980 10979 10978 10978 10977 10976 10976 10975 10975 10974 10973 10972 10971 10970 10970 10970 10969 10969 10969 10969 10969 10968 10967 10966 10966 10966 10966 10965 10964 10963 10962 10961 10960 10959
10963 10965 10966 10967 10969 10970 10971 10972 10972 10973 10974 10975 10976 10977 10978 10978 10979 10979 10979 10979 10979 10979 10980 10980 10980 10981 10981 10981 10981 10980 10979 10978 10978 10978 10979 10980 10981 10981 10981 10982 10982 10982 10982 10982 10981 10981 10980 10980 10980 10981 10981 10981 10980 10980 10979 10978 10978 10977 10976 10975 10974 10974 10973 10972 10972 10971 10971 10971 10970 10970 10969 10969 10968 10967 10967 10967 10966 10966 10966 10965 10964 10963 10962 10961 10960
10961 10962 10964 10966 10967 10968 10969 10971 10972 10973 10974 10974 10975 10976 10977 10978 10978 10979 10979 10979 10979 10979 10980 10980 10980 10981 10981 10982 10981 10980 10979 10978 10977 10977 10979 10980 10981 10981 10982 10982 10982 10983 10982 10982 10982 10982 10981 10981 10981 10981 10981 10981 10981 10980 10980 10980 10979 10978 10977 10976 10975 10975 10975 10974 10973 10972 10972 10972 10972 10971 10970 10970 10969 10968 10967 10967 10966 10966 10965 10965 10964 10964 10963 10962 10962
10957 10959 10962 10963 10965 10966 10968 10969 10971 10972 10972 10973 10973 10974 10976 10977 10978 10978 10978 10978 10978 10979 10979 10979 10980 10980 10980 10981 10980 10979 10978 10977 10976 10977 10979 10980 10980 10981 10981 10981 10982 10983 10983 10982 10982 10982 10982 10982 10982 10982 10982 10981 10981 10981 10980 10980 10980 10979 10978 10977 10976 10975 10975 10975 10974 10973 10973 10972 10972 10971 10971 10970 10969 10968 10968 10967 10966 10965 10964 10964 10964 10963 10963 10963 10962
10952 10955 10958 10959 10961 10964 10966 10967 10968 10969 10970 10971 10972 10973 10974 10975 10976 10976 10977 10977 10977 10977 10977 10978 10978 10979 10979 10979 10979 10978 10977 10976 10976 10977 10978 10979 10980 10980 10981 10980 10980 10982 10982 10982 10982 10982 10982 10982 10982 10982 10981 10981 10981 10981 10980 10980 10980 10979 10978 10977 10976 10976 10975 10974 10974 10973 10972 10972 10971 10971 10970 10970 10969 10968 10967 10966 10966 10965 10964 10963 10963 10963 10963 10962 10962
10947 10950 10953 10955 10958 10961 10963 10964 10965 10966 10967 10969 10970 10972 10973 10973 10974 10974 10975 10975 10975 10975 10975 10976 10977 10977 10977 10977 10977 10977 10976 10976 10976 10976 10977 10978 10979 10979 10980 10979 10979 10981 10982 10982 10981 10981 10981 10982 10982 10982 10981 10981 10981 10980 10980 10979 10979 10978 10978 10977 10976 10976 10975 10974 10973 10972 10972 10971 10971 10970 10970 10969 10968 10967 10966 10965 10965 10964 10964 10963 10963 10962 10962 10962 10961
10942 10946 10948 10951 10954 10957 10959 10960 10961 10963 10964 10966 10967 10969 10971 10971 10972 10972 10973 10973 10973 10973 10974 10974 10975 10975 10976 10975 10975 10975 10975 10975 10975 10976 10976 10977 10977 10978 10979 10978 10978 10979 10980 10981 10981 10981 10981 10981 10981 10981 10980 10980 10980 10979 10979 10979 10978 10978 10977 10976 10976 10975 10974 10974 10973 10972 10972 10971 10970 10969 10968 10968 10967 10966 10965 10964 10963 10963 10962 10962 10962 10962 10961 10961 10960
10938 10941 10944 10946 10949 10952 10953 10955 10957 10959 10961 10963 10964 10965 10967 10968 10969 10969 10970 10970 10970 10970 10971 10971 10972 10973 10973 10973 10973 10973 10973 10973 10973 10974 10974 10975 10975 10976 10977 10977 10977 10977 10978 10979 10979 10979 10980 10980 10980 10980 10979 10978 10978 10978 10978 10978 10977 10976 10975 10974 10974 10973 10972 10972 10972 10971 10970 10969 10968 10967 10966 10966 10965 10965 10964 10963 10962 10962 10961 10961 10961 10961 10960 10959 10958
10934 10937 10940 10943 10945 10947 10949 10952 10954 10956 10958 10959 10960 10961 10962 10964 10965 10966 10966 10966 10966 10966 10967 10968 10968 10969 10970 10970 10970 10971 10971 10971 10971 10971 10971 10972 10973 10973 10974 10975 10975 10975 10976 10976 10977 10977 10978 10978 10978 10977 10976 10974 10974 10975 10975 10976 10976 10975 10974 10973 10972 10971 10971 10970 10969 10968 10967 10966 10965 10964 10964 10964 10964 10963 10962 10962 10961 10961 10960 10960 10959 10959 10958 10958 10956
10931 10935 10937 10938 10940 10942 10945 10947 10949 10952 10954 10955 10956 10957 10958 10959 10961 10961 10961 10960 10961 10961 10962 10963 10964 10965 10966 10966 10967 10968 10968 10968 10968 10969 10969 10970 10970 10971 10971 10972 10973 10973 10973 10973 10974 10975 10973 10971 10969 10968 10968 10968 10970 10971 10972 10973 10974 10974 10972 10970 10969 10968 10968 10966 10965 10964 10964 10963 10963 10962 10962 10962 10962 10961 10960 10960 10960 10959 10958 10958 10957 10956 10956 10955 10954
10928 10930 10932 10933 10935 10938 10940 10942 10944 10946 10948 10950 10953 10954 10955 10956 10957 10956 10955 10957 10957 10957 10958 10958 10959 10960 10961 10962 10963 10964 10965 10966 10966 10967 10967 10967 10968 10968 10968 10969 10969 10970 10970 10971 10971 10969 10965 10962 10962 10963 10964 10965 10967 10968 10968 10969 10969 10969 10968 10966 10965 10965 10964 10963 10962 10961 10960 10960 10960 10960 10959 10959 10959 10959 10958 10958 10957 10957 10956 10956 10955 10954 10953 10952 10952
10923 10925 10926 10928 10931 10934 10936 10937 10939 10940 10942 10945 10948 10950 10953 10955 10952 10949 10950 10953 10954 10953 10953 10953 10953 10954 10955 10957 10959 10960 10962 10963 10964 10964 10964 10965 10964 10965 10965 10965 10966 10966 10967 10967 10965 10962 10959 10959 10960 10961 10962 10962 10963 10963 10964 10964 10964 10964 10962 10961 10961 10961 10960 10959 10959 10958 10958 10957 10957 10957 10957 10957 10956 10956 10955 10955 10955 10954 10954 10953 10953 10952 10951 10950 10949
10916 10919 10920 10922 10924 10928 10931 10933 10934 10935 10937 10940 10942 10943 10947 10948 10944 10942 10944 10947 10948 10948 10948 10948 10949 10949 10950 10952 10954 10956 10957 10958 10959 10960 10961 10961 10961 10961 10961 10961 10962 10962 10962 10961 10959 10956 10955 10955 10955 10956 10957 10957 10958 10958 10958 10959 10959 10958 10957 10957 10957 10956 10955 10954 10955 10954 10954 10954 10953 10953 10953 10953 10953 10952 10951 10951 10951 10951 10951 10951 10950 10949 10948 10947 10946
10909 10912 10913 10915 10917 10922 10926 10927 10928 10930 10932 10934 10935 10935 10937 10937 10935 10936 10939 10941 10941 10942 10943 10945 10945 10944 10945 10947 10949 10950 10951 10953 10954 10955 10956 10956 10956 10956 10956 10956 10957 10957 10956 10955 10953 10951 10951 10950 10949 10950 10951 10952 10952 10953 10953 10954 10954 10953 10952 10951 10952 10951 10950 10949 10949 10949 10949 10949 10949 10948 10948 10948 10948 10948 10947 10947 10947 10947 10947 10947 10947 10945 10944 10944 10943
10900 10903 10905 10907 10909 10913 10918 10920 10921 10923 10925 10927 10927 10927 10928 10928 10928 10930 10932 10933 10934 10935 10938 10940 10939 10936 10938 10942 10943 10943 10944 10946 10948 10949 10950 10951 10951 10951 10951 10951 10951 10951 10950 10949 10948 10947 10946 10946 10944 10944 10945 10946 10946 10946 10947 10948 10949 10948 10947 10946 10946 10946 10945 10944 10944 10944 10944 10944 10944 10943 10943 10943 10943 10943 10942 10942 10942 10941 10941 10941 10941 10941 10940 10940 10939
10892 10895 10897 10899 10901 10904 10908 10912 10914 10916 10917 10918 10918 10918 10918 10919 10920 10922 10924 10925 10927 10929 10931 10933 10932 10930 10933 10936 10937 10937 10938 10939 10941 10942 10943 10944 10945 10946 10947 10947 10947 10946 10943 10941 10942 10942 10941 10940 10938 10938 10939 10939 10939 10939 10941 10942 10942 10941 10941 10941 10941 10940 10940 10939 10939 10939 10938 10938 10938 10937 10936 10937 10937 10937 10936 10936 10936 10936 10936 10935 10935 10935 10935 10934 10934
10886 10887 10888 10891 10893 10896 10899 10902 10905 10907 10908 10909 10910 10911 10912 10912 10913 10915 10916 10918 10920 10923 10924 10926 10925 10926 10928 10929 10929 10931 10932 10933 10934 10936 10936 10937 10939 10941 10942 10941 10940 10939 10937 10935 10934 10934 10934 10933 10932 10931 10931 10932 10932 10933 10934 10934 10933 10933 10934 10935 10935 10934 10934 10934 10933 10933 10933 10932 10932 10931 10930 10930 10930 10930 10930 10930 10930 10930 10930 10929 10929 10929 10929 10928 10928
10878 10880 10881 10884 10886 10888 10890 10893 10896 10898 10899 10900 10901 10903 10904 10905 10906 10907 10909 10911 10914 10916 10918 10919 10919 10920 10922 10922 10923 10925 10927 10927 10927 10928 10929 10931 10933 10934 10935 10934 10932 10932 10932 10930 10927 10924 10924 10925 10924 10924 10924 10925 10926 10927 10927 10926 10926 10926 10926 10927 10927 10927 10927 10927 10927 10927 10926 10926 10926 10925 10924 10923 10923 10923 10923 10924 10924 10923 10923 10923 10923 10923 10922 10922 10921
10872 10873 10876 10878 10879 10880 10883 10885 10887 10889 10890 10891 10892 10894 10896 10898 10900 10901 10904 10906 10909 10910 10911 10913 10914 10915 10916 10916 10917 10919 10921 10921 10920 10921 10923 10925 10926 10926 10925 10925 10926 10926 10926 10923 10918 10915 10915 10916 10917 10917 10918 10919 10919 10919 10919 10918 10918 10919 10920 10920 10920 10919 10919 10920 10920 10920 10920 10920 10919 10919 10918 10917 10916 10916 10916 10916 10916 10915 10915 10915 10916 10916 10915 10915 10914
10865 10868 10871 10872 10872 10874 10875 10876 10878 10880 10882 10883 10886 10889 10891 10893 10895 10897 10898 10900 10903 10904 10905 10907 10908 10909 10910 10911 10911 10912 10914 10914 10913 10915 10917 10917 10916 10916 10916 10917 10918 10919 10918 10914 10910 10908 10908 10909 10909 10910 10911 10912 10912 10911 10911 10911 10910 10911 10912 10912 10912 10912 10912 10912 10912 10913 10913 10913 10912 10912 10911 10911 10910 10910 10909 10909 10909 10908 10907 10907 10907 10907 10907 10907 10906
10859 10862 10862 10862 10864 10866 10866 10866 10868 10871 10874 10876 10879 10881 10883 10884 10886 10889 10891 10893 10895 10897 10899 10900 10902 10903 10904 10904 10904 10905 10907 10907 10908 10909 10910 10909 10907 10907 10908 10910 10911 10911 10910 10906 10904 10903 10903 10902 10902 10902 10903 10904 10904 10903 10903 10903 10903 10903 10904 10904 10904 10904 10904 10904 10904 10905 10905 10906 10905 10905 10904 10903 10903 10903 10903 10902 10902 10901 10900 10899 10898 10898 10898 10898 10897
10852 10854 10853 10852 10855 10857 10858 10860 10863 10866 10867 10869 10871 10872 10874 10875 10877 10880 10883 10885 10887 10889 10891 10893 10894 10896 10897 10897 10897 10899 10900 10901 10902 10903 10902 10901 10900 10900 10901 10903 10903 10902 10901 10899 10898 10898 10897 10895 10895 10895 10895 10896 10896 10895 10895 10894 10894 10894 10895 10895 10895 10895 10895 10895 10895 10896 10896 10897 10896 10896 10896 10896 10895 10894 10894 10894 10894 10893 10892 10891 10891 10890 10890 10889 10888
10845 10846 10846 10846 10849 10850 10851 10854 10858 10861 10862 10863 10865 10866 10868 10869 10870 10873 10875 10878 10879 10881 10882 10884 10885 10887 10889 10889 10889 10891 10893 10894 10895 10895 10893 10892 10893 10894 10894 10895 10894 10893 10892 10891 10890 10890 10889 10888 10887 10886 10887 10887 10887 10886 10886 10885 10885 10884 10884 10885 10885 10885 10885 10885 10885 10885 10886 10886 10886 10886 10886 10886 10886 10886 10885 10885 10884 10884 10883 10883 10882 10881 10881 10880 10880
10837 10839 10840 10840 10842 10843 10845 10847 10851 10853 10855 10857 10858 10859 10861 10863 10864 10866 10868 10870 10871 10872 10874 10875 10876 10878 10879 10880 10881 10882 10884 10885 10885 10885 10884 10884 10885 10886 10886 10886 10885 10885 10884 10883 10882 10881 10880 10880 10879 10878 10877 10877 10877 10877 10876 10876 10875 10875 10875 10875 10875 10875 10875 10875 10875 10875 10874 10874 10875 10875 10875 10875 10875 10875 10875 10875 10874 10873 10873 10872 10871 10870 10870 10870 10869
10829 10832 10833 10835 10836 10837 10839 10841 10843 10846 10848 10849 10851 10852 10854 10856 10857 10859 10861 10863 10864 10865 10866 10867 10868 10869 10870 10871 10871 10872 10874 10875 10875 10875 10875 10874 10875 10875 10876 10876 10875 10875 10875 10874 10872 10871 10871 10870 10870 10870 10869 10868 10867 10867 10867 10866 10866 10865 10865 10865 10864 10864 10864 10864 10864 10863 10863 10862 10862 10862 10862 10862 10862 10862 10863 10863 10862 10862 10861 10860 10859 10858 10857 10857 10857
10821 10824 10826 10828 10830 10831 10833 10834 10836 10838 10840 10842 10843 10845 10846 10848 10850 10851 10853 10855 10856 10857 10858 10859 10860 10860 10861 10862 10862 10863 10863 10864 10865 10865 10865 10865 10865 10865 10865 10865 10865 10865 10864 10863 10862 10861 10861 10861 10860 10860 10860 10859 10858 10857 10856 10855 10854 10853 10853 10853 10853 10853 10852 10852 10852 10852 10851 10850 10849 10849 10848 10849 10849 10849 10849 10849 10849 10849 10848 10848 10847 10846 10845 10844 10844
10812 10816 10819 10821 10823 10825 10826 10827 10829 10830 10832 10833 10835 10837 10838 10840 10842 10843 10845 10847 10848 10849 10850 10851 10851 10852 10853 10853 10853 10854 10854 10854 10854 10855 10855 10856 10856 10856 10856 10856 10856 10855 10854 10853 10852 10852 10852 10851 10850 10849 10849 10850 10849 10849 10847 10845 10843 10842 10841 10840 10840 10840 10839 10839 10838 10838 10838 10837 10836 10836 10835 10835 10835 10835 10835 10835 10835 10835 10835 10834 10834 10833 10832 10831 10830
10804 10807 10811 10813 10816 10817 10818 10819 10821 10822 10824 10825 10827 10828 10829 10831 10832 10834 10836 10838 10839 10840 10841 10842 10842 10842 10843 10843 10844 10844 10845 10844 10844 10844 10844 10845 10845 10846 10846 10846 10845 10845 10844 10844 10843 10842 10841 10840 10839 10838 10838 10838 10838 10837 10836 10835 10833 10831 10830 10829 10827 10826 10825 10825 10824 10824 10824 10823 10823 10822 10822 10821 10821 10821 10821 10821 10821 10820 10820 10820 10820 10819 10819 10818 10817
10795 10798 10801 10804 10807 10808 10810 10811 10812 10814 10815 10817 10818 10820 10821 10822 10823 10824 10826 10827 10829 10830 10831 10832 10832 10832 10832 10833 10833 10834 10834 10834 10833 10833 10833 10834 10834 10834 10834 10834 10834 10834 10833 10833 10832 10830 10828 10827 10826 10825 10825 10825 10824 10824 10823 10822 10821 10819 10817 10815 10814 10813 10812 10812 10812 10811 10810 10810 10809 10809 10808 10807 10806 10806 10805 10805 10805 10805 10805 10804 10804 10804 10804 10803 10803
10786 10789 10792 10794 10796 10797 10799 10801 10804 10805 10807 10808 10810 10811 10812 10813 10813 10814 10815 10816 10818 10819 10820 10821 10821 10822 10822 10822 10822 10823 10823 10822 10822 10822 10823 10822 10822 10822 10822 10822 10822 10822 10821 10821 10819 10817 10815 10813 10812 10812 10812 10812 10811 10810 10809 10808 10807 10805 10803 10801 10800 10799 10799 10799 10799 10798 10797 10796 10795 10795 10794 10793 10792 10791 10790 10789 10789 10789 10789 10789 10788 10788 10787 10787 10786
10777 10780 10782 10784 10785 10787 10788 10791 10793 10796 10798 10799 10800 10801 10802 10802 10803 10803 10804 10805 10806 10807 10808 10809 10810 10811 10811 10812 10812 10812 10811 10811 10811 10811 10811 10810 10810 10810 10811 10811 10810 10809 10809 10808 10806 10804 10802 10801 10800 10800 10799 10799 10798 10797 10796 10794 10793 10791 10789 10788 10787 10786 10786 10785 10784 10784 10783 10782 10781 10781 10780 10779 10778 10777 10775 10774 10773 10773 10772 10772 10772 10772 10771 10771 10770
10768 10770 10772 10774 10775 10777 10779 10781 10783 10785 10787 10788 10790 10791 10791 10791 10792 10792 10793 10794 10795 10796 10797 10798 10799 10800 10801 10801 10801 10800 10799 10799 10799 10799 10799 10798 10797 10797 10797 10797 10796 10796 10795 10794 10792 10791 10789 10788 10788 10787 10786 10785 10784 10782 10781 10779 10778 10777 10775 10774 10773 10772 10771 10770 10769 10768 10767 10767 10766 10766 10765 10764 10763 10761 10760 10759 10757 10756 10755 10754 10754 10754 10754 10754 10754
10759 10761 10763 10765 10766 10769 10771 10773 10774 10775 10776 10777 10778 10779 10780 10780 10780 10781 10782 10783 10784 10785 10786 10788 10789 10789 10790 10789 10789 10788 10787 10787 10787 10786 10786 10785 10784 10784 10783 10783 10782 10782 10781 10780 10778 10777 10776 10775 10774 10773 10772 10770 10769 10767 10766 10764 10763 10762 10760 10759 10758 10757 10756 10755 10754 10753 10752 10751 10750 10749 10749 10748 10747 10745 10744 10742 10741 10739 10737 10736 10735 10734 10733 10733 10733
10750 10752 10754 10756 10758 10760 10762 10764 10764 10764 10765 10766 10767 10767 10767 10768 10768 10769 10770 10772 10773 10775 10777 10778 10778 10778 10777 10776 10776 10775 10775 10774 10774 10773 10772 10772 10771 10770 10770 10769 10768 10767 10766 10765 10764 10763 10762 10761 10760 10759 10758 10756 10754 10753 10751 10749 10748 10746 10745 10743 10742 10741 10740 10739 10738 10737 10735 10734 10733 10732 10731 10730 10729 10728 10727 10725 10724 10722 10720 10719 10718 10716 10715 10714 10713
10742 10743 10745 10746 10749 10751 10753 10754 10754 10754 10754 10755 10756 10756 10757 10757 10757 10757 10758 10760 10763 10765 10766 10767 10766 10765 10764 10763 10762 10762 10761 10760 10760 10759 10758 10757 10757 10756 10755 10755 10754 10752 10751 10750 10749 10748 10747 10746 10745 10744 10743 10741 10739 10737 10736 10734 10732 10730 10728 10727 10725 10724 10723 10722 10721 10720 10719 10718 10717 10716 10714 10713 10712 10711 10709 10708 10707 10705 10703 10702 10701 10700 10699 10697 10696
10733 10734 10735 10737 10739 10742 10743 10744 10744 10744 10744 10745 10746 10746 10747 10747 10746 10747 10748 10750 10752 10753 10753 10753 10752 10752 10751 10750 10749 10748 10747 10746 10746 10745 10744 10743 10741 10740 10740 10739 10737 10736 10735 10734 10734 10733 10732 10731 10730 10729 10727 10725 10723 10722 10720 10718 10716 10714 10712 10711 10709 10708 10706 10705 10703 10702 10701 10700 10699 10698 10697 10695 10694 10693 10692 10690 10689 10688 10686 10685 10684 10682 10681 10679 10678
10723 10725 10726 10728 10730 10732 10733 10734 10734 10734 10735 10735 10736 10737 10736 10736 10736 10737 10738 10739 10739 10740 10740 10740 10739 10738 10738 10737 10736 10735 10733 10732 10732 10731 10730 10728 10726 10725 10724 10723 10721 10720 10719 10718 10717 10716 10715 10715 10714 10713 10712 10710 10708 10706 10703 10701 10699 10697 10696 10695 10693 10691 10689 10687 10685 10683 10682 10680 10679 10679 10677 10676 10675 10674 10672 10671 10670 10669 10668 10667 10665 10664 10662 10661 10659
10713 10715 10717 10719 10721 10722 10723 10723 10723 10724 10725 10726 10726 10726 10725 10725 10725 10726 10726 10726 10726 10726 10726 10726 10726 10725 10724 10723 10722 10722 10721 10720 10718 10716 10714 10713 10711 10709 10708 10707 10705 10704 10703 10702 10700 10699 10699 10698 10697 10696 10694 10693 10691 10688 10686 10683 10682 10680 10679 10678 10676 10674 10672 10670 10667 10664 10662 10660 10659 10658 10657 10656 10655 10653 10652 10651 10650 10649 10647 10646 10645 10643 10642 10641 10639
10703 10706 10708 10711 10712 10712 10712 10712 10713 10714 10715 10714 10714 10714 10714 10714 10714 10713 10712 10712 10712 10712 10712 10712 10711 10711 10709 10708 10707 10707 10707 10707 10705 10703 10701 10698 10695 10693 10691 10690 10689 10687 10686 10684 10683 10682 10681 10680 10678 10677 10676 10675 10673 10670 10667 10665 10663 10662 10661 10659 10658 10656 10653 10651 10647 10644 10641 10639 10638 10638 10637 10635 10633 10631 10630 10629 10628 10627 10625 10623 10622 10620 10619 10617 10616
10695 10697 10699 10700 10701 10701 10701 10701 10702 10703 10703 10703 10702 10702 10702 10701 10701 10700 10699 10699 10699 10698 10698 10698 10698 10697 10696 10694 10693 10692 10691 10691 10690 10689 10687 10685 10682 10679 10676 10673 10672 10670 10668 10666 10664 10663 10661 10660 10658 10657 10657 10656 10654 10651 10648 10646 10644 10643 10641 10640 10638 10636 10633 10630 10627 10623 10620 10618 10618 10617 10615 10613 10610 10608 10606 10604 10602 10600 10599 10597 10595 10594 10592 10591 10589
10686 10687 10688 10689 10690 10690 10690 10690 10690 10691 10691 10691 10691 10690 10689 10689 10688 10688 10687 10687 10686 10685 10685 10685 10684 10684 10682 10681 10679 10677 10676 10675 10674 10673 10672 10670 10667 10664 10661 10657 10654 10652 10649 10647 10644 10643 10641 10640 10638 10637 10636 10635 10634 10631 10628 10626 10624 10622 10621 10619 10617 10615 10612 10608 10605 10601 10599 10597 10596 10595 10592 10589 10587 10585 10582 10579 10576 10573 10571 10569 10567 10566 10565 10563 10561
10677 10678 10678 10679 10679 10679 10679 10678 10679 10679 10680 10681 10680 10680 10679 10678 10677 10677 10676 10676 10675 10674 10673 10672 10671 10670 10669 10667 10665 10663 10661 10660 10659 10658 10656 10654 10651 10648 10645 10641 10637 10634 10631 10628 10625 10623 10621 10619 10617 10616 10615 10614 10612 10610 10607 10605 10603 10601 10599 10597 10595 10592 10589 10586 10583 10580 10577 10574 10572 10570 10567 10565 10563 10561 10558 10555 10551 10548 10545 10543 10541 10540 10538 10536 10533
10669 10669 10670 10670 10670 10670 10670 10669 10670 10670 10670 10670 10669 10669 10668 10667 10667 10666 10665 10664 10663 10661 10660 10659 10658 10657 10656 10654 10652 10650 10648 10646 10644 10642 10640 10638 10635 10632 10629 10625 10621 10618 10614 10611 10608 10606 10603 10600 10597 10595 10594 10592 10590 10588 10585 10583 10580 10578 10576 10574 10572 10569 10566 10563 10560 10557 10554 10550 10547 10544 10541 10539 10537 10535 10533 10530 10527 10523 10520 10518 10516 10514 10512 10510 10508
10661 10661 10662 10662 10662 10662 10661 10661 10661 10661 10660 10659 10659 10658 10658 10657 10656 10655 10653 10652 10650 10649 10648 10647 10646 10645 10644 10642 10640 10638 10635 10632 10629 10627 10624 10621 10619 10616 10613 10610 10606 10603 10599 10596 10592 10589 10585 10582 10579 10577 10574 10572 10569 10567 10565 10562 10559 10556 10554 10551 10549 10546 10543 10540 10537 10534 10531 10528 10524 10521 10518 10515 10512 10510 10508 10505 10503 10500 10497 10494 10492 10490 10487 10486 10484
10654 10654 10654 10654 10654 10654 10653 10653 10652 10651 10651 10650 10650 10649 10649 10648 10646 10644 10642 10640 10639 10637 10636 10636 10635 10633 10631 10630 10627 10625 10622 10619 10615 10612 10609 10605 10602 10600 10597 10594 10590 10587 10584 10580 10577 10573 10569 10565 10562 10559 10557 10554 10551 10548 10546 10543 10540 10536 10533 10531 10528 10526 10523 10519 10516 10513 10510 10507 10504 10500 10497 10494 10492 10489 10486 10484 10481 10478 10476 10473 10470 10468 10466 10464 10462
10647 10647 10647 10647 10647 10646 10645 10644 10643 10642 10642 10642 10641 10641 10640 10639 10637 10635 10633 10631 10629 10627 10626 10624 10623 10621 10619 10617 10614 10612 10609 10606 10603 10599 10596 10592 10589 10585 10582 10578 10575 10572 10568 10565 10561 10557 10553 10549 10545 10542 10539 10537 10534 10531 10528 10524 10521 10518 10515 10512 10509 10507 10504 10500 10497 10493 10491 10487 10484 10481 10478 10475 10473 10470 10468 10465 10462 10459 10457 10454 10451 10449 10447 10444 10442
10640 10639 10640 10640 10640 10639 10637 10636 10635 10634 10633 10633 10632 10631 10630 10629 10627 10625 10624 10622 10620 10618 10616 10614 10612 10609 10606 10603 10600 10598 10595 10592 10589 10586 10582 10579 10576 10572 10568 10564 10560 10556 10553 10549 10545 10541 10537 10533 10529 10526 10523 10520 10517 10513 10510 10506 10503 10500 10497 10494 10492 10489 10486 10483 10479 10475 10472 10470 10466 10463 10460 10457 10455 10452 10449 10446 10444 10442 10439 10436 10433 10431 10429 10427 10424
10632 10632 10632 10632 10631 10630 10629 10627 10626 10626 10625 10624 10623 10622 10620 10619 10617 10615 10613 10611 10609 10607 10606 10604 10601 10598 10594 10590 10586 10583 10580 10577 10574 10571 10568 10564 10561 10558 10554 10550 10545 10541 10536 10532 10527 10524 10520 10517 10513 10510 10507 10504 10500 10497 10493 10490 10486 10483 10481 10478 10475 10472 10470 10466 10462 10459 10456 10453 10450 10447 10444 10441 10438 10434 10431 10428 10426 10424 10422 10420 10417 10415 10413 10411 10409